TimeCDT,TemperatureF,Dew PointF,Humidity,Sea Level PressureIn,VisibilityMPH,Wind Direction,Wind SpeedMPH,Gust SpeedMPH,PrecipitationIn,Events,Conditions,WindDirDegrees,DateUTC
12:15 AM,46.4,41.0,81,30.11,10.0,NNE,18.4,24.2,N/A,,Overcast,30,2013-10-04 05:15:00
12:35 AM,46.4,42.8,87,30.12,10.0,NNE,16.1,25.3,N/A,,Mostly Cloudy,20,2013-10-04 05:35:00
12:55 AM,46.4,42.8,87,30.11,10.0,NNE,20.7,26.5,N/A,,Overcast,20,2013-10-04 05:55:00
1:15 AM,46.4,42.8,87,30.10,10.0,NNE,17.3,25.3,N/A,,Overcast,30,2013-10-04 06:15:00
1:35 AM,44.6,42.8,93,30.11,10.0,NNE,17.3,25.3,N/A,,Overcast,30,2013-10-04 06:35:00
1:55 AM,44.6,42.8,93,30.11,10.0,NNE,16.1,21.9,N/A,,Mostly Cloudy,20,2013-10-04 06:55:00
2:15 AM,44.6,42.8,93,30.10,10.0,NNE,18.4,26.5,N/A,,Overcast,20,2013-10-04 07:15:00
2:35 AM,44.6,42.8,93,30.10,10.0,NNE,20.7,27.6,N/A,,Mostly Cloudy,30,2013-10-04 07:35:00
2:55 AM,44.6,41.0,87,30.10,10.0,NNE,23.0,26.5,N/A,,Partly Cloudy,20,2013-10-04 07:55:00
3:15 AM,42.8,41.0,93,30.10,10.0,NNE,19.6,25.3,N/A,,Clear,30,2013-10-04 08:15:00
3:35 AM,42.8,41.0,93,30.10,10.0,NNE,23.0,32.2,N/A,,Partly Cloudy,30,2013-10-04 08:35:00
3:55 AM,42.8,41.0,93,30.10,10.0,NNE,23.0,27.6,N/A,,Mostly Cloudy,30,2013-10-04 08:55:00
4:15 AM,42.8,41.0,93,30.11,10.0,NNE,18.4,29.9,N/A,,Overcast,30,2013-10-04 09:15:00
4:35 AM,42.8,41.0,93,30.12,10.0,NNE,18.4,24.2,N/A,,Overcast,30,2013-10-04 09:35:00
4:55 AM,42.8,41.0,93,30.13,10.0,NNE,18.4,27.6,N/A,,Overcast,30,2013-10-04 09:55:00
5:15 AM,42.8,41.0,93,30.13,10.0,NNE,19.6,25.3,N/A,,Overcast,30,2013-10-04 10:15:00
5:35 AM,41.0,39.2,93,30.15,10.0,NNE,21.9,25.3,N/A,,Overcast,30,2013-10-04 10:35:00
5:55 AM,41.0,39.2,93,30.14,10.0,NNE,23.0,29.9,N/A,,Overcast,30,2013-10-04 10:55:00
6:15 AM,41.0,39.2,93,30.16,10.0,NNE,20.7,28.8,N/A,,Overcast,20,2013-10-04 11:15:00
6:35 AM,41.0,39.2,93,30.17,10.0,NNE,18.4,31.1,N/A,,Overcast,20,2013-10-04 11:35:00
6:55 AM,41.0,37.4,87,30.18,10.0,NNE,18.4,24.2,N/A,,Overcast,20,2013-10-04 11:55:00
7:35 AM,41.0,37.4,87,30.16,10.0,NNE,25.3,31.1,N/A,Rain,Light Rain,20,2013-10-04 12:35:00
7:55 AM,41.0,37.4,87,30.17,10.0,North,18.4,29.9,N/A,Rain,Light Rain,10,2013-10-04 12:55:00
8:15 AM,39.2,37.4,93,30.18,9.0,NNE,23.0,28.8,N/A,Rain,Light Rain,20,2013-10-04 13:15:00
8:35 AM,39.2,37.4,93,30.18,10.0,NNE,20.7,36.8,0.01,,Mostly Cloudy,20,2013-10-04 13:35:00
8:55 AM,39.2,37.4,93,30.17,10.0,NNE,23.0,32.2,0.01,,Overcast,20,2013-10-04 13:55:00
9:15 AM,39.2,37.4,93,30.17,10.0,North,24.2,33.4,N/A,,Overcast,10,2013-10-04 14:15:00
9:35 AM,39.2,37.4,93,30.17,10.0,NNE,20.7,35.7,N/A,,Overcast,20,2013-10-04 14:35:00
9:55 AM,39.2,37.4,93,30.16,10.0,NNE,17.3,31.1,N/A,,Overcast,20,2013-10-04 14:55:00
10:15 AM,39.2,39.2,100,30.14,10.0,NNE,23.0,32.2,N/A,Rain,Light Rain,20,2013-10-04 15:15:00
10:35 AM,39.2,37.4,93,30.15,10.0,NNE,25.3,32.2,N/A,,Overcast,30,2013-10-04 15:35:00
10:55 AM,39.2,37.4,93,30.15,10.0,NNE,19.6,36.8,N/A,,Overcast,20,2013-10-04 15:55:00
11:15 AM,39.2,37.4,93,30.14,10.0,NNE,19.6,33.4,N/A,,Overcast,20,2013-10-04 16:15:00
11:35 AM,39.2,37.4,93,30.16,10.0,NNE,19.6,28.8,N/A,,Overcast,30,2013-10-04 16:35:00
11:55 AM,39.2,37.4,93,30.14,10.0,NNE,25.3,33.4,N/A,,Overcast,30,2013-10-04 16:55:00
12:15 PM,41.0,37.4,87,30.14,10.0,NNE,25.3,34.5,N/A,,Overcast,30,2013-10-04 17:15:00
12:35 PM,41.0,37.4,87,30.13,10.0,NNE,23.0,32.2,N/A,,Overcast,30,2013-10-04 17:35:00
12:55 PM,41.0,37.4,87,30.14,10.0,NNE,23.0,36.8,N/A,,Overcast,30,2013-10-04 17:55:00
1:15 PM,39.2,39.2,100,30.13,10.0,NNE,24.2,38.0,N/A,,Overcast,30,2013-10-04 18:15:00
1:35 PM,39.2,39.2,100,30.11,6.0,NNE,29.9,35.7,0.01,,Overcast,20,2013-10-04 18:35:00
1:55 PM,39.2,39.2,100,30.11,9.0,NNE,27.6,41.4,0.02,,Overcast,20,2013-10-04 18:55:00
2:15 PM,39.2,39.2,100,30.11,10.0,NNE,26.5,39.1,N/A,,Overcast,30,2013-10-04 19:15:00
2:35 PM,39.2,37.4,93,30.10,10.0,NNE,27.6,34.5,0.01,,Overcast,20,2013-10-04 19:35:00
2:55 PM,37.4,37.4,100,30.10,9.0,NNE,21.9,34.5,0.01,Snow,Light Snow,20,2013-10-04 19:55:00
3:15 PM,37.4,37.4,100,30.10,7.0,NNE,27.6,35.7,0.01,,Overcast,20,2013-10-04 20:15:00
3:35 PM,37.4,37.4,100,30.09,6.0,NNE,25.3,38.0,0.02,Snow,Light Snow,30,2013-10-04 20:35:00
3:55 PM,37.4,37.4,100,30.08,2.0,NNE,27.6,35.7,0.08,,Mostly Cloudy,20,2013-10-04 20:55:00
4:15 PM,37.4,37.4,100,30.08,4.0,NNE,26.5,36.8,0.02,Snow,Light Snow,30,2013-10-04 21:15:00
4:35 PM,37.4,37.4,100,30.09,10.0,NNE,26.5,33.4,0.02,Snow,Light Snow,20,2013-10-04 21:35:00
4:55 PM,37.4,37.4,100,30.07,2.0,NNE,26.5,35.7,0.05,Snow,Light Snow,20,2013-10-04 21:55:00
5:15 PM,37.4,37.4,100,30.08,1.0,NNE,27.6,36.8,0.04,Snow,Light Snow,20,2013-10-04 22:15:00
5:35 PM,37.4,37.4,100,30.09,1.0,NNE,28.8,36.8,0.16,,Unknown,20,2013-10-04 22:35:00
5:55 PM,37.4,37.4,100,30.08,1.5,NNE,24.2,36.8,0.40,,Scattered Clouds,20,2013-10-04 22:55:00
6:15 PM,37.4,37.4,100,30.05,1.5,NNE,35.7,43.7,0.13,,Scattered Clouds,20,2013-10-04 23:15:00
6:35 PM,37.4,37.4,100,30.05,2.0,NNE,27.6,43.7,0.22,,Mostly Cloudy,20,2013-10-04 23:35:00
6:55 PM,37.4,37.4,100,30.05,3.0,NNE,29.9,43.7,0.27,Snow,Light Snow,30,2013-10-04 23:55:00
7:15 PM,37.4,37.4,100,30.03,3.0,NNE,36.8,46.0,0.02,Snow,Light Snow,30,2013-10-05 00:15:00
7:35 PM,37.4,37.4,100,30.04,5.0,NNE,32.2,46.0,0.05,Snow,Light Snow,30,2013-10-05 00:35:00
7:55 PM,37.4,37.4,100,30.03,2.0,NNE,34.5,47.2,0.10,,Mostly Cloudy,30,2013-10-05 00:55:00
8:15 PM,37.4,37.4,100,30.04,3.0,NNE,32.2,47.2,0.02,Snow,Light Snow,30,2013-10-05 01:15:00
8:35 PM,37.4,37.4,100,30.03,2.5,NNE,32.2,48.3,0.08,Snow,Light Snow,30,2013-10-05 01:35:00
8:55 PM,37.4,37.4,100,30.03,1.8,NNE,32.2,44.9,0.14,Snow,Light Snow,20,2013-10-05 01:55:00
9:15 PM,37.4,37.4,100,30.03,1.8,NNE,32.2,43.7,0.04,Snow,Light Snow,30,2013-10-05 02:15:00
9:35 PM,37.4,37.4,100,30.04,2.0,NNE,29.9,42.6,0.09,Snow,Light Snow,20,2013-10-05 02:35:00
9:55 PM,37.4,37.4,100,30.03,1.5,NNE,29.9,42.6,0.18,,Overcast,30,2013-10-05 02:55:00
10:15 PM,37.4,37.4,100,30.01,1.5,NNE,34.5,43.7,0.20,,Overcast,30,2013-10-05 03:15:00
10:35 PM,37.4,37.4,100,30.00,3.0,NNE,27.6,44.9,0.38,,Mostly Cloudy,30,2013-10-05 03:35:00
10:55 PM,37.4,37.4,100,30.01,5.0,NNE,28.8,40.3,0.40,Snow,Light Snow,30,2013-10-05 03:55:00
11:15 PM,37.4,37.4,100,29.99,3.0,NNE,31.1,44.9,0.01,Snow,Light Snow,30,2013-10-05 04:15:00
11:35 PM,37.4,37.4,100,29.98,4.0,NNE,27.6,41.4,0.03,Snow,Light Snow,30,2013-10-05 04:35:00
11:55 PM,39.2,39.2,100,29.96,5.0,NNE,32.2,42.6,0.05,,Overcast,30,2013-10-05 04:55:00